Regional Weather Roundup
Issued by NWS

Home | Current Version | Previous Version | Graphics & Text | Print | Product List | Glossary Off
Versions: 1 2 3 4 5 6 7 8 9 10 11 12 13 14 15 16 17 18 19 20 21 22 23 24 25 26 27 28 29 30 31 32 33 34 35 36 37 38 39 40 41 42 43 44 45 46 47 48 49 50

000
ASUS43 KTOP 231159
RWRKS

WEATHER ROUNDUP FOR KANSAS
NATIONAL WEATHER SERVICE GOODLAND KS
700 AM CDT WED APR 23 2014

NOTE:  "FAIR" INDICATES FEW OR NO CLOUDS BELOW 12,000 FEET WITH NO
SIGNIFICANT WEATHER AND/OR OBSTRUCTIONS TO VISIBILITY.

KSZ001>006-013>018-027>032-041>047-231300-
NORTHWEST KANSAS

CITY           SKY/WX    TMP DP  RH WIND       PRES   REMARKS
GOODLAND       CLOUDY    61  41  47 S23G29    29.61S
6HR MIN TEMP:  55; 6HR MAX TEMP:  61;

HAYS           PTCLDY    55  37  50 S20       29.74F
HILL CITY      MOCLDY    56  41  57 SE15G23   29.69F
6HR MIN TEMP:  56; 6HR MAX TEMP:  61;

RUSSELL        MOCLDY    57  36  45 SE18G30   29.75S
6HR MIN TEMP:  57; 6HR MAX TEMP:  61;

$$

KSZ061>065-074>080-084>089-231300-
SOUTHWEST KANSAS

CITY           SKY/WX    TMP DP  RH WIND       PRES   REMARKS
DODGE CITY     PTCLDY    58  47  66 S21G30    29.76S
6HR MIN TEMP:  57; 6HR MAX TEMP:  63;

ELKHART          N/A     59  37  44 S14         N/A
GARDEN CITY    MOCLDY    58  46  64 S15       29.74R
6HR MIN TEMP:  55; 6HR MAX TEMP:  63;

GREAT BEND     PTCLDY    57  36  44 SE21      29.77S
LIBERAL        PTCLDY    59  43  55 E15       29.78S
$$

KSZ066>073-081>083-090>101-231300-
SOUTHEAST KANSAS

CITY           SKY/WX    TMP DP  RH WIND       PRES   REMARKS
CHANUTE        MOCLDY    54  37  52 SE9       29.96R
6HR MIN TEMP:  48; 6HR MAX TEMP:  55; 6HR PCP: TRACE;

COFFEYVILLE    MOCLDY    49  40  71 E7        29.95R
6HR MIN TEMP:  45; 6HR MAX TEMP:  51;

HUTCHINSON     MOCLDY    57  35  43 S16       29.85R
6HR MIN TEMP:  56; 6HR MAX TEMP:  60;

NEWTON         MOCLDY    54  34  47 SE18      29.88F
PARSONS        MOCLDY    53  38  56 E3        29.96S
6HR MIN TEMP:  51; 6HR MAX TEMP:  58;

WICHITA INTL   CLOUDY    57  37  47 SE15      29.87R
6HR MIN TEMP:  56; 6HR MAX TEMP:  59;

WICHITA JABRA  PTCLDY    54  38  54 SE10      29.87S
6HR MIN TEMP:  54; 6HR MAX TEMP:  57;

$$

KSZ007>012-019>026-033>040-048>060-102>105-231300-
NORTHEAST KANSAS

CITY           SKY/WX    TMP DP  RH WIND       PRES   REMARKS
CONCORDIA      LGT RAIN  53  42  66 SE17      29.84S
6HR MIN TEMP:  53; 6HR MAX TEMP:  60; 6HR PCP: TRACE;

EMPORIA        CLOUDY    53  38  56 SE12      29.93R
6HR MIN TEMP:  53; 6HR MAX TEMP:  55; 6HR PCP: TRACE;

LAWRENCE       CLOUDY    56  38  50 SE8       30.00R
6HR MIN TEMP:  50; 6HR MAX TEMP:  56; 6HR PCP: TRACE;

MANHATTAN      LGT RAIN  56  39  53 SE14      29.89F
6HR MIN TEMP:  53; 6HR MAX TEMP:  61; 6HR PCP:  0.01;

OLATHE IND     CLOUDY    53  36  52 SE13      29.99S
6HR MIN TEMP:  52; 6HR MAX TEMP:  55; 6HR PCP: TRACE;

OLATHE EXE     CLOUDY    53  35  50 SE13      29.98F
6HR MIN TEMP:  52; 6HR MAX TEMP:  54;

SALINA         MOCLDY    58  37  45 SE18      29.84S
6HR MIN TEMP:  57; 6HR MAX TEMP:  61; 6HR PCP: TRACE;

TOPEKA BILLARD CLOUDY    58  36  43 SE8       29.98R
6HR MIN TEMP:  53; 6HR MAX TEMP:  58; 6HR PCP: TRACE;

TOPEKA FORBES  CLOUDY    55  36  48 SE14      29.95F
6HR MIN TEMP:  51; 6HR MAX TEMP:  56; 6HR PCP: TRACE;

$$



USA.gov is the U.S. government's official web portal to all federal, state and local government web resources and services.